Location: Colebrook
(42.0017°N, 73.0973°W)
Time: 10:51:04
(UTC-04:00)

Vanguard 2 Rocket - Visible Passes

Search period start: 25 October 2021 00:00
Search period end: 04 November 2021 00:00
Orbit: 556 x 3323 km, 32.9° (Epoch: 24 October)

Date Brightness Start Highest point End Pass type
(mag) Time Alt. Az. Time Alt. Az. Time Alt. Az.
25 Oct 10.1 03:54:24 16° S 04:03:12 25° SSE 04:12:10 10° ESE visible
25 Oct 9.2 06:05:01 10° SW 06:18:12 41° SSE 06:26:06 10° ESE visible
26 Oct 10.4 02:58:40 19° SSE 03:02:17 20° SSE 03:11:13 10° ESE visible
26 Oct 9.5 05:04:30 12° SW 05:17:39 38° SSE 05:26:43 10° E visible
27 Oct 10.6 02:02:48 15° SE 02:02:48 15° SE 02:08:42 10° ESE visible
27 Oct 9.8 04:08:38 23° SSW 04:16:49 34° SSE 04:26:57 10° E visible
27 Oct 9.0 06:17:51 10° WSW 06:31:55 49° S 06:40:07 10° ESE visible
28 Oct 10.1 03:12:40 27° SSE 03:15:46 29° SSE 03:26:38 10° E visible
28 Oct 9.3 05:18:29 16° SW 05:31:19 47° SSE 05:40:49 10° E visible
29 Oct 10.4 02:16:36 23° SE 02:16:36 23° SE 02:25:29 10° ESE visible
29 Oct 9.5 04:22:24 29° SSW 04:30:24 43° SSE 04:41:13 10° E visible
29 Oct 8.9 06:31:01 10° WSW 06:45:36 53° S 06:54:00 10° ESE visible
30 Oct 10.7 01:20:27 13° ESE 01:20:27 13° ESE 01:22:56 10° ESE visible
30 Oct 9.8 03:26:15 36° S 03:29:13 38° SSE 03:41:11 10° E visible
30 Oct 9.1 05:32:03 18° WSW 05:44:58 53° S 05:54:46 10° E visible
31 Oct 10.1 02:30:01 31° SE 02:30:01 31° SE 02:40:36 10° E visible
31 Oct 9.4 04:35:49 32° SW 04:43:58 51° SSE 04:55:14 10° E visible
31 Oct 8.9 06:44:24 10° WSW 06:59:15 54° S 07:07:45 10° ESE visible
01 Nov 10.5 01:33:43 20° ESE 01:33:43 20° ESE 01:39:09 10° E visible
01 Nov 9.6 03:39:30 44° S 03:42:39 47° SSE 03:55:21 10° E visible
01 Nov 9.1 05:45:18 18° WSW 05:58:35 57° S 06:08:35 10° ESE visible
02 Nov 9.8 02:43:09 40° SE 02:43:09 40° SE 02:55:01 10° E visible
02 Nov 9.3 04:48:56 34° SW 04:57:32 57° S 05:09:07 10° E visible
02 Nov 9.0 06:57:53 10° W 07:12:46 52° SSW 07:21:25 10° ESE visible
03 Nov 10.3 01:46:45 27° ESE 01:46:45 27° ESE 01:54:03 10° E visible
03 Nov 9.4 03:52:31 49° SSW 03:56:07 54° SSE 04:09:18 10° E visible
03 Nov 9.1 05:58:18 17° WSW 06:12:10 58° S 06:22:19 10° ESE visible
